Location: Béaulencourt
(50.0796°N, 2.8795°E)
Time: 05:43:32
(UTC+00:00)

Cosmos 1633 Rocket - Pass Details

Date: 20 January 2026
Orbit: 600 x 616 km, 82.5° (Epoch: 18 February)

Event Time Altitude Azimuth Distance (km) Brightness Sun altitude
Rises 06:50:07 0° 222° (SW) 2,856 6.3 -7.6°
Reaches altitude 10° 06:52:40 10° 236° (SW) 1,954 5.3 -7.2°
Maximum altitude 06:56:13 25° 291° (WNW) 1,247 4.0 -6.7°
Drops below altitude 10° 06:59:49 10° 347° (NNW) 1,960 5.3 -6.1°
Sets 07:02:22 0° 1° (N) 2,866 6.2 -5.8°
